PDT,Max TemperatureF,Mean TemperatureF,Min TemperatureF,Max Dew PointF,MeanDew PointF,Min DewpointF,Max Humidity, Mean Humidity, Min Humidity, Max Sea Level PressureIn, Mean Sea Level PressureIn, Min Sea Level PressureIn, Max VisibilityMiles, Mean VisibilityMiles, Min VisibilityMiles, Max Wind SpeedMPH, Mean Wind SpeedMPH, Max Gust SpeedMPH,PrecipitationIn, CloudCover, Events, WindDirDegrees
2011-10-1,60,54,50,53,50,48,94,88,72,30.00,29.92,29.86,10,10,6,6,0,,0.00,8,Rain,191
2011-10-2,63,54,46,54,49,45,100,87,63,29.99,29.94,29.84,10,5,0,10,1,,0.05,6,Fog-Rain,50
2011-10-3,62,58,54,52,49,46,93,71,58,29.82,29.80,29.76,10,10,10,18,9,31,0.02,6,Rain,133
2011-10-4,66,58,51,49,45,40,89,64,42,29.75,29.61,29.45,10,10,10,24,10,30,0.00,5,,136
2011-10-5,55,53,51,52,50,48,96,90,83,29.77,29.56,29.42,10,10,9,7,2,,0.13,8,Rain,133
2011-10-6,57,54,50,52,50,48,100,88,72,30.05,29.93,29.77,10,8,3,10,1,18,0.00,8,,186
2011-10-7,57,51,45,52,49,42,97,87,75,30.25,30.14,30.04,10,9,2,9,6,,0.06,6,Rain,171
2011-10-8,64,52,39,51,44,37,100,88,48,30.26,30.19,30.06,10,5,0,10,1,17,0.02,3,Fog-Rain,114
2011-10-9,61,52,44,52,48,43,93,80,55,30.08,30.02,29.84,10,10,10,14,8,23,0.00,4,,178
2011-10-10,57,52,48,53,49,45,94,86,67,29.80,29.58,29.47,10,10,6,21,4,26,0.14,7,Rain,103
2011-10-11,57,55,53,53,51,48,94,83,75,30.03,29.75,29.51,10,10,6,18,13,28,0.19,6,Rain,167
2011-10-12,57,50,44,52,48,42,94,85,69,30.25,30.17,30.04,10,10,8,13,7,18,0.06,6,Rain,168
2011-10-13,59,47,37,46,41,37,100,89,58,30.27,30.22,30.07,10,5,0,8,1,,0.00,2,Fog,337
2011-10-14,57,48,39,45,41,36,100,86,59,30.09,30.04,30.00,10,7,1,7,1,,0.00,0,,309
2011-10-15,57,45,33,45,37,32,100,91,59,30.17,30.08,30.03,10,4,0,7,0,,0.00,4,Fog-Snow,340
2011-10-16,53,42,32,44,37,30,100,90,64,30.36,30.17,30.06,10,5,0,6,0,,0.00,2,Fog,220
2011-10-17,60,48,37,46,41,35,97,85,56,30.48,30.40,30.33,10,7,0,8,1,,0.00,2,Fog,329
2011-10-18,66,52,39,50,42,37,100,85,50,30.36,30.21,29.96,10,6,1,8,2,,0.00,0,,343
2011-10-19,60,49,39,51,45,39,100,91,72,30.07,29.95,29.90,10,4,0,14,1,22,0.03,3,Fog-Rain,162
2011-10-20,55,50,46,53,49,45,97,90,72,30.14,30.09,30.04,10,8,1,12,8,20,0.09,7,Rain,173
2011-10-21,57,52,48,54,50,46,100,88,77,30.22,30.12,30.07,10,9,3,21,6,33,0.16,7,Rain,158
2011-10-22,57,54,51,54,51,48,97,90,77,30.22,30.14,30.10,10,8,2,10,4,,0.53,7,Rain,145
2011-10-23,57,50,42,49,45,41,100,88,58,30.22,30.18,30.12,10,8,1,7,2,,0.00,1,,166
2011-10-24,55,47,39,45,42,36,97,80,49,30.41,30.28,30.16,10,10,10,9,2,,0.00,3,,168
2011-10-25,57,46,37,43,39,34,96,85,59,30.51,30.45,30.39,10,9,2,7,1,,0.00,3,,338
2011-10-26,50,40,33,44,37,32,100,92,74,30.41,30.33,30.21,10,5,0,8,1,,0.05,6,Fog-Rain,187
2011-10-27,53,44,35,43,38,34,100,89,57,30.37,30.30,30.11,10,5,0,6,1,,0.00,3,Fog,80
2011-10-28,57,47,37,46,41,31,93,77,36,30.09,29.95,29.84,10,9,4,25,7,40,0.23,6,Rain,158
2011-10-29,55,48,41,45,43,39,93,82,63,30.33,30.25,30.12,10,10,4,8,4,,0.00,4,,160
2011-10-30,55,48,41,52,45,39,94,86,62,30.17,30.07,30.01,10,9,2,14,4,21,0.21,6,Rain,166
2011-10-31,52,48,44,45,40,35,90,76,54,30.48,30.35,30.20,10,10,10,9,4,,0.00,5,,213